This is the latest recevied weather packets stored in our database for station/object F1ZRP-13. If no packets are shown the sender has not sent any weather packets the latest 10 day(s).
| Time | Temp. | Humidity | Pressure | Rain* | Wind** | Luminosity | Snow |
|---|---|---|---|---|---|---|---|
| 1777506793 | 11.11° C | 43% | 1024.5 hPa | - | - | - | - |
| 1777505752 | 11.67° C | 43% | 1024.5 hPa | - | - | - | - |
| 1777504997 | 11.67° C | 42% | 1024.4 hPa | - | - | - | - |
| 1777503943 | 12.22° C | 43% | 1024.2 hPa | - | - | - | - |
| 1777502886 | 12.22° C | 43% | 1024.2 hPa | - | - | - | - |
| 1777502016 | 12.78° C | 43% | 1024.2 hPa | - | - | - | - |
| 1777501052 | 12.78° C | 44% | 1024.1 hPa | - | - | - | - |
| 1777500056 | 12.78° C | 43% | 1024.1 hPa | - | - | - | - |
| 1777498981 | 13.33° C | 43% | 1024 hPa | - | - | - | - |
| 1777498230 | 13.33° C | 41% | 1023.8 hPa | - | - | - | - |
| 1777497318 | 13.89° C | 40% | 1023.7 hPa | - | - | - | - |
| 1777496436 | 13.89° C | 39% | 1023.5 hPa | - | - | - | - |
| 1777495521 | 13.89° C | 38% | 1023.5 hPa | - | - | - | - |
| 1777494371 | 14.44° C | 37% | 1023.3 hPa | - | - | - | - |
| 1777493548 | 14.44° C | 36% | 1023.2 hPa | - | - | - | - |
| 1777492570 | 15° C | 35% | 1023 hPa | - | - | - | - |
| 1777491704 | 15° C | 35% | 1022.8 hPa | - | - | - | - |
| 1777490957 | 15° C | 36% | 1022.7 hPa | - | - | - | - |
| 1777489864 | 16.11° C | 34% | 1022.5 hPa | - | - | - | - |
| 1777488076 | 16.67° C | 33% | 1022.2 hPa | - | - | - | - |
| 1777487473 | 17.22° C | 33% | 1022.1 hPa | - | - | - | - |
| 1777486381 | 17.78° C | 32% | 1021.9 hPa | - | - | - | - |
| 1777485443 | 18.33° C | 30% | 1021.8 hPa | - | - | - | - |
| 1777484732 | 18.89° C | 30% | 1021.7 hPa | - | - | - | - |
| 1777483880 | 19.44° C | 30% | 1021.7 hPa | - | - | - | - |
* Rain since midnight (hover to see other rain measurements)
** Current wind speed in m/s (hover to see current wind gust speed)